Racecast

MHSAA D1 Regional 4-1 (Host: Brownstown Woodhaven)

Lake Erie Metro Park OFFICIAL · 5000m · Girls · Compiled · MI

88 runners from 1 division

These divisions were run separately. This is how their times compare, not how they finished — the places and scores below were never contested.

View full meet →

Team scores

Place Team Points 12345 67
1 Saline (MI) 15 1 2 3 4 5 11 12
2 Temperance Bedford (MI) 60 6 9 13 15 17 19 25
3 Woodhaven Brownstown (MI) 76 7 14 16 18 21 28 30
4 Monroe (MI) 148 8 20 23 48 49 60 63
5 Allen Park (MI) 165 10 31 33 45 46 53 54
6 Wyandotte Roosevelt (MI) 202 32 34 42 44 50 51 52
7 Belleville (MI) 208 29 35 41 47 56 66
8 Southgate Anderson (MI) 230 27 36 43 59 65 69 70
9 Ypsilanti Lincoln (MI) 231 24 38 40 62 67
10 Dearborn (MI) 242 22 39 55 58 68
11 Dearborn Edsel Ford (MI) 245 26 37 57 61 64

Not scored, fewer than five finishers: Ypsilanti Community (4), Wayne Memorial (4), Detroit Western International (1)

Results

Place Athlete Grade School Time Rating Points Actual race
1 Elianna Shwayder 10 Saline (MI) 1 20:04.0 123.6 1 1
2 Lauren Green 9 Saline (MI) 2 20:23.8 121.6 2 2
3 Abby Rentschler 9 Saline (MI) 3 20:31.4 120.9 3 3
4 Amy Creutz 12 Saline (MI) 4 20:34.0 120.6 4 4
5 Alyssa Cummings 11 Saline (MI) 5 20:39.9 120.1 5 5
6 Kourtney Osentoski 12 Temperance Bedford (MI) 1 20:46.7 119.4 6 6
7 Cassie Breen 10 Woodhaven Brownstown (MI) 1 20:52.4 118.8 7 7
8 Riley Delben 10 Monroe (CA) 1 20:55.6 118.6 8 8
9 Kelsey Calhoun 12 Temperance Bedford (MI) 2 20:56.3 118.5 9 9
10 Sabrina Williams 10 Allen Park (MI) 1 21:01.3 118.0 10 10
11 Amy Frauhammer 12 Saline (MI) 6 21:06.1 117.6 11 11
12 Gloria Park 10 Saline (MI) 7 21:06.7 117.5 12 12
13 Anne Redd 12 Temperance Bedford (MI) 3 21:25.3 115.8 13 13
14 Karina Villalobos 9 Woodhaven Brownstown (MI) 2 21:32.0 115.2 14 14
15 Lauren Bules 11 Temperance Bedford (MI) 4 21:39.2 114.6 15 15
16 Kendra Cook 9 Woodhaven Brownstown (MI) 3 22:00.3 112.7 16 16
17 Chloe Rick 11 Temperance Bedford (MI) 5 22:09.4 112.0 17 17
18 Kim Ader 12 Woodhaven Brownstown (MI) 4 22:10.2 111.9 18 18
19 Emily Holmes 12 Temperance Bedford (MI) 6 22:11.7 111.8 19 19
20 Lindsey Zawacki 9 Monroe (CA) 2 22:19.9 111.1 20 20
21 Aly Trapp 9 Woodhaven Brownstown (MI) 5 22:21.3 111.0 21 21
22 Leah Wendzinski 11 Dearborn (MI) 1 22:24.6 110.7 22 22
23 Paige Bork 11 Monroe (CA) 3 22:24.9 110.7 23 23
24 Adela Myles 10 Ypsilanti Lincoln (MI) 1 22:34.1 109.9 24 24
25 Kaitlyn Leist 10 Temperance Bedford (MI) 7 22:42.1 109.3 25 25
26 Sarah Woolley 12 Dearborn Edsel Ford (MI) 1 22:42.7 109.2 26 26
27 Dakota Angileri 12 Southgate Anderson (MI) 1 23:02.1 107.7 27 27
28 Courtney Patterson 11 Woodhaven Brownstown (MI) 6 23:02.8 107.6 28 28
29 Brieanna Schofield 11 Belleville (WI) 1 23:14.3 106.8 29 29
30 Melinda Dietz 9 Woodhaven Brownstown (MI) 7 23:17.8 106.5 30 30
31 Ammy Rosales 9 Allen Park (MI) 2 23:39.0 104.9 31 31
32 Marissa Rickman 11 Wyandotte Roosevelt (MI) 1 23:44.8 104.5 32 32
33 Emily Eccleton 10 Allen Park (MI) 3 23:45.2 104.4 33 33
34 Brittany Cini 9 Wyandotte Roosevelt (MI) 2 23:48.3 104.2 34 34
35 Alyssa Green 9 Belleville (WI) 2 23:55.5 103.7 35 35
36 Hallie Tingstad 9 Southgate Anderson (MI) 2 23:59.6 103.4 36 36
37 Lily Melekian 10 Dearborn Edsel Ford (MI) 2 24:00.6 103.3 37 37
38 Aleah Kramarczyk 10 Ypsilanti Lincoln (MI) 2 24:02.8 103.2 38 38
39 Miajune Wurster 9 Dearborn (MI) 2 24:04.5 103.0 39 39
40 Marina Geider 10 Ypsilanti Lincoln (MI) 3 24:07.7 102.8 40 40
41 Ryann Patton 11 Belleville (WI) 3 24:09.9 102.7 41 41
42 Kristen Ball 11 Wyandotte Roosevelt (MI) 3 24:10.2 102.6 42 42
43 Morgan Fantow 9 Southgate Anderson (MI) 3 24:10.5 102.6 43 43
44 Fatou Conde 11 Ypsilanti Community (MI) 1 24:22.5 101.8 44
45 Jasmine Parker 12 Wyandotte Roosevelt (MI) 4 24:36.8 100.8 44 45
46 Kira Crawley 10 Ypsilanti Community (MI) 2 24:46.8 100.1 46
47 Emily Lovasz 9 Allen Park (MI) 4 24:49.2 99.9 45 47
48 Rachel Tyszkiewicz 11 Allen Park (MI) 5 24:59.0 99.3 46 48
49 Daeja Raglin 12 Ypsilanti Community (MI) 3 25:07.0 98.8 49
50 Kaitlin McCafferty 11 Belleville (WI) 4 25:10.9 98.5 47 50
51 Megan Brady 12 Monroe (CA) 4 25:11.3 98.5 48 51
52 Victoria Warnecke 10 Monroe (CA) 5 25:12.2 98.4 49 52
53 Ashley Hanson 9 Wyandotte Roosevelt (MI) 5 25:18.0 98.1 50 53
54 Mallory McCormick 11 Wyandotte Roosevelt (MI) 6 25:18.4 98.0 51 54
55 Grace Clark 10 Wyandotte Roosevelt (MI) 7 25:20.4 97.9 52 55
56 Hailey Lazarek 10 Allen Park (MI) 6 25:26.4 97.5 53 56
57 Olivia Keeley 9 Allen Park (MI) 7 25:26.7 97.5 54 57
58 Jazzi Johnson 9 Dearborn (MI) 3 25:28.7 97.4 55 58
59 Rachel Connors 9 Belleville (WI) 5 25:31.7 97.2 56 59
60 Brooke Griffith 9 Dearborn Edsel Ford (MI) 3 25:50.3 96.0 57 60
61 Kendelle Hood 9 Wayne Memorial (MI) 1 26:00.0 95.4 61
62 Chloe Haag 10 Dearborn (MI) 4 26:03.7 95.2 58 62
63 Kayla Smith 11 Southgate Anderson (MI) 4 26:07.5 95.0 59 63
64 Sandy Zilka 11 Monroe (CA) 6 26:08.6 94.9 60 64
65 Katie Kelsey 12 Wyandotte Roosevelt (MI) 8 26:25.4 93.9 65
66 Megan Macek 10 Wayne Memorial (MI) 2 26:34.7 93.3 66
67 Caity Bejester 12 Dearborn Edsel Ford (MI) 4 26:56.9 92.1 61 67
68 Adejah Martin 9 Woodhaven Brownstown (MI) 8 27:01.0 91.8 68
69 Alexis Guziel 10 Ypsilanti Lincoln (MI) 4 27:07.1 91.5 62 69
70 Jordan Burman 12 Monroe (CA) 7 27:08.7 91.4 63 70
71 Allison Range 12 Dearborn Edsel Ford (MI) 5 27:10.2 91.3 64 71
72 Samantha Philips 9 Wyandotte Roosevelt (MI) 9 27:33.0 90.1 72
73 Carneysha McGee 12 Ypsilanti Community (MI) 4 27:38.6 89.7 73
74 Abbie Waidelich 10 Southgate Anderson (MI) 5 27:38.8 89.7 65 74
75 Hannah Fuchs 11 Wyandotte Roosevelt (MI) 10 27:39.0 89.7 75
76 Samantha Mall 10 Belleville (WI) 6 27:55.9 88.8 66 76
77 Rachelle Budop 11 Woodhaven Brownstown (MI) 9 28:02.0 88.5 77
78 Elizabeth Burns 12 Ypsilanti Lincoln (MI) 5 28:28.6 87.1 67 78
79 Carlita Jones 11 Wayne Memorial (MI) 3 28:52.0 85.9 79
80 Kelsey Anderson 12 Dearborn (MI) 5 28:53.7 85.8 68 80
81 Laura Campbell 12 Woodhaven Brownstown (MI) 10 29:07.0 85.2 81
82 Raj Kaur 10 Woodhaven Brownstown (MI) 11 29:12.0 85.0 82
83 Chelsea Pingston 11 Southgate Anderson (MI) 6 29:20.4 84.6 69 83
84 Megan Browe 10 Southgate Anderson (MI) 7 29:50.6 83.1 70 84
85 Destiny Gorski 9 Wyandotte Roosevelt (MI) 11 31:20.0 79.2 85
86 Amy Blicharski 12 Woodhaven Brownstown (MI) 12 31:34.0 78.6 86
87 Danielle Brown 10 Detroit Western International (MI) 1 32:27.3 76.4 87
88 Vicki Poleski 12 Wayne Memorial (MI) 4 34:46.4 71.3 88